Regional Weather Roundup
Issued by NWS Goodland, KS

Home | Current Version | Previous Version | Graphics & Text | Print | Product List | Glossary On
Versions: 1 2 3 4 5 6 7 8 9 10 11 12 13 14 15 16 17 18 19 20 21 22 23 24 25 26 27 28 29 30 31 32 33 34 35 36 37 38 39 40 41 42 43 44 45 46 47 48 49 50
000
ASUS43 KGLD 051008
RWRGLD

GOODLAND FORECAST AREA HOURLY WEATHER ROUNDUP
NATIONAL WEATHER SERVICE GOODLAND KS
400 AM MDT SUN JUL 05 2015

...OFFICIAL OBSERVATIONS...

CITY           SKY/WX    TMP DP  RH WIND       PRES   REMARKS
GOODLAND KS    CLEAR     69  62  78 S14       29.88S
HILL CITY KS   CLOUDY    76  66  71 S7        29.88R
IMPERIAL NEB   PTCLDY    70  62  76 S9        29.86S
MCCOOK NEB     PTCLDY    76  64  66 S13       29.84F
AKRON CO       CLEAR     69  51  52 W9        29.93S
BURLINGTON CO  CLEAR     63  58  83 S8        29.92S
LIMON CO       PTCLDY    54  52  93 NW3       30.00S
$$

...UNOFFICIAL OBSERVATIONS...

CITY           SKY/WX    TMP DP  RH WIND       PRES   REMARKS
COLBY KS       CLEAR     79  63  57 S15G24    29.89S
GOVE KS          N/A     76  32  20 MISG        N/A
NORTON KS      CLEAR     73  63  68 SE14      29.85S
SHARON SPRINGS   N/A     68  62  80 SE9         N/A
KIT CARSON CO    N/A     61  54  76 MISG        N/A
$$



USA.gov is the U.S. government's official web portal to all federal, state and local government web resources and services.